Weather History for KCXY - December, 2012

Change the Weather History Date:

Friday, December 14, 2012

  Actual Average (KMDT) Record (KMDT)
Temperature  
Mean Temperature 36 °F 34 °F  
Max Temperature 50 °F 42 °F 64 °F (1927)
Min Temperature 21 °F 27 °F 4 °F (2005)
Degree Days  
Heating Degree Days 30 31  
Month to date heating degree days 406  
Since 1 July heating degree days 1445  
Cooling Degree Days 0 0  
Month to date cooling degree days 0  
Year to date cooling degree days 1002  
Moisture  
Dew Point 24 °F    
Average Humidity 72    
Maximum Humidity 92    
Minimum Humidity 36    
Precipitation  
Precipitation 0.00 in 0.10 in 1.50 in (1999)
Month to date precipitation 1.59  
Year to date precipitation 39.10  
Snow  
Snow 0.00 in - - ()
Month to date snowfall  
Since 1 July snowfall  
Snow Depth -    
Sea Level Pressure  
Sea Level Pressure 30.28 in    
Wind  
Wind Speed 2 mph (WSW)    
Max Wind Speed 10 mph    
Max Gust Speed -    
Visibility 9 miles    
Events      
T = Trace of Precipitation, MM = Missing Value Source: NWS Daily Summary

Daily Weather History Graph

Daily Weather History Graph

Search for Another Location

Airport or City:

Trip Planner

Search our weather history database for the weather conditions in past years. The results will help you decide how hot, cold, wet, or windy it might be!

Date:

Astronomy

Dec. 14, 2012 Rise Set
Actual Time 7:22 AM EST 4:42 PM EST
Civil Twilight 6:51 AM EST 5:12 PM EST
Nautical Twilight 6:17 AM EST 5:47 PM EST
Astronomical Twilight 5:44 AM EST 6:20 PM EST
Moon 8:25 AM EST (12/14) 6:32 PM EST (12/14)
Length of Visible Light 10h 21m
Length of Day
9h 19m
Waxing Crescent, 3% of the Moon is Illuminated
Dec 14
Waxing Crescent
Dec 20
First Quarter
Dec 28
Full
Jan 4
Last Quarter
Jan 11
New

Hourly Weather History & Observations

Time (EST) Temp. Windchill Dew Point Humidity Pressure Visibility Wind Dir Wind Speed Gust Speed Precip Events Conditions
12:56 AM 25.0 °F - 21.9 °F 88% 30.35 in 9.0 mi Calm Calm - N/A   Clear
1:56 AM 26.1 °F 21.9 °F 21.9 °F 84% 30.33 in 9.0 mi WSW 3.5 mph - N/A   Clear
2:56 AM 25.0 °F - 21.0 °F 85% 30.33 in 8.0 mi Calm Calm - N/A   Clear
3:56 AM 23.0 °F - 19.9 °F 88% 30.32 in 7.0 mi Calm Calm - N/A   Clear
4:56 AM 21.9 °F 17.2 °F 19.9 °F 92% 30.32 in 7.0 mi WSW 3.5 mph - N/A   Clear
6:56 AM 21.9 °F 17.2 °F 19.0 °F 89% 30.32 in 7.0 mi WSW 3.5 mph - N/A   Clear
7:56 AM 23.0 °F - 19.9 °F 88% 30.32 in 8.0 mi Calm Calm - N/A   Clear
8:56 AM 30.9 °F 27.5 °F 25.0 °F 79% 30.32 in 8.0 mi West 3.5 mph - N/A   Clear
9:56 AM 34.0 °F 28.8 °F 26.1 °F 73% 30.32 in 10.0 mi WSW 5.8 mph - N/A   Clear
10:56 AM 39.0 °F 35.7 °F 27.0 °F 62% 30.29 in 10.0 mi Variable 4.6 mph - N/A   Clear
11:56 AM 43.0 °F 39.5 °F 28.0 °F 56% 30.26 in 10.0 mi WSW 5.8 mph - N/A   Clear
1:56 PM 50.0 °F - 28.0 °F 43% 30.23 in 10.0 mi West 6.9 mph - N/A   Clear
2:56 PM 50.0 °F - 24.1 °F 36% 30.22 in 10.0 mi WSW 10.4 mph - N/A   Clear
3:56 PM 48.9 °F - 26.1 °F 41% 30.22 in 10.0 mi WSW 6.9 mph - N/A   Clear
4:56 PM 46.9 °F - 26.1 °F 44% 30.21 in 10.0 mi West 3.5 mph - N/A   Clear
5:56 PM 39.9 °F - 27.0 °F 60% 30.23 in 10.0 mi Calm Calm - N/A   Clear
6:56 PM 36.0 °F - 27.0 °F 70% 30.25 in 10.0 mi Calm Calm - N/A   Clear
7:56 PM 35.1 °F - 27.0 °F 72% 30.25 in 10.0 mi Calm Calm - N/A   Clear
8:56 PM 30.9 °F - 26.1 °F 82% 30.26 in 10.0 mi Calm Calm - N/A   Clear
9:56 PM 30.9 °F - 26.1 °F 82% 30.26 in 8.0 mi Calm Calm - N/A   Clear
10:56 PM 30.0 °F - 25.0 °F 82% 30.27 in 9.0 mi Calm Calm - N/A   Clear
11:56 PM 28.9 °F 25.2 °F 24.1 °F 82% 30.28 in 10.0 mi SW 3.5 mph - N/A   Clear